| time (UTC) | temp F | wind direction | speed MPH | gust MPH | rain 1hr in | rain 24hr in | rain mn in | humidity % | barometer mb |
| 20260505092108 | 60 | 305 | 1.0 | 2.0 | 0.00 | 0.00 | 0.00 | 88 | 981.6 |
| 20260505091608 | 60 | 228 | 1.0 | 6.0 | 0.00 | 0.00 | 0.00 | 86 | 981.6 |
| 20260505091108 | 61 | 324 | 1.0 | 5.0 | 0.00 | 0.00 | 0.00 | 82 | 981.5 |
| 20260505090608 | 61 | 183 | 2.0 | 6.0 | 0.00 | 0.00 | 0.00 | 80 | 981.2 |
| 20260505090108 | 61 | 0 | 1.0 | 3.0 | 0.00 | 0.00 | 0.00 | 78 | 981.1 |
| 20260505085608 | 62 | 209 | 0.0 | 3.0 | 0.00 | 0.00 | 0.00 | 76 | 980.7 |
| 20260505085108 | 62 | 348 | 1.0 | 3.0 | 0.00 | 0.00 | 0.00 | 75 | 980.3 |
| 20260505084608 | 62 | 20 | 1.0 | 5.0 | 0.00 | 0.00 | 0.00 | 74 | 980.2 |
| 20260505084108 | 63 | 14 | 2.0 | 3.0 | 0.00 | 0.00 | 0.00 | 72 | 980.6 |
| 20260505083608 | 63 | 323 | 0.0 | 2.0 | 0.00 | 0.00 | 0.00 | 67 | 980.1 |
| 20260505083108 | 63 | 153 | 0.0 | 2.0 | 0.00 | 0.00 | 0.00 | 68 | 979.8 |
| 20260505082608 | 63 | 154 | 2.0 | 2.0 | 0.00 | 0.00 | 0.00 | 67 | 979.7 |
| 20260505082108 | 63 | 170 | 0.0 | 0.0 | 0.00 | 0.00 | 0.00 | 67 | 979.6 |
| 20260505081608 | 63 | 170 | 0.0 | 0.0 | 0.00 | 0.00 | 0.00 | 67 | 979.5 |
| 20260505081108 | 63 | 170 | 0.0 | 1.0 | 0.00 | 0.00 | 0.00 | 67 | 979.4 |
| 20260505080608 | 63 | 178 | 0.0 | 0.0 | 0.00 | 0.00 | 0.00 | 66 | 979.2 |
| 20260505080108 | 63 | 127 | 0.0 | 0.0 | 0.00 | 0.00 | 0.00 | 66 | 979.1 |
| 20260505075608 | 63 | 127 | 0.0 | 2.0 | 0.00 | 0.00 | 0.00 | 65 | 979.1 |
| 20260505075107 | 63 | 146 | 1.0 | 2.0 | 0.00 | 0.00 | 0.00 | 65 | 979.1 |
| 20260505074608 | 63 | 186 | 0.0 | 1.0 | 0.00 | 0.00 | 0.00 | 66 | 979.3 |
| 20260505074108 | 63 | 184 | 0.0 | 2.0 | 0.00 | 0.00 | 0.00 | 66 | 979.3 |
| 20260505073108 | 63 | 220 | 0.0 | 1.0 | 0.00 | 0.00 | 0.00 | 66 | 979.3 |
| 20260505072608 | 63 | 216 | 0.0 | 0.0 | 0.00 | 0.00 | 0.00 | 66 | 979.2 |
| 20260505071608 | 63 | 194 | 0.0 | 0.0 | 0.00 | 0.00 | 0.00 | 66 | 979.2 |
| 20260505071108 | 63 | 194 | 0.0 | 0.0 | 0.00 | 0.00 | 0.00 | 66 | 979.1 |
| 20260505070608 | 63 | 194 | 0.0 | 0.0 | 0.00 | 0.00 | 0.00 | 65 | 979.1 |
| 20260505070108 | 64 | 194 | 0.0 | 1.0 | 0.00 | 0.00 | 0.00 | 65 | 979.1 |
| 20260505065608 | 64 | 167 | 0.0 | 2.0 | 0.00 | 0.00 | 0.00 | 65 | 979.1 |
| 20260505065107 | 64 | 221 | 0.0 | 0.0 | 0.00 | 0.00 | 0.00 | 64 | 979.0 |
| 20260505064608 | 64 | 195 | 0.0 | 2.0 | 0.00 | 0.00 | 0.00 | 64 | 979.0 |
| 20260505064108 | 64 | 236 | 0.0 | 2.0 | 0.00 | 0.00 | 0.00 | 64 | 979.0 |
| 20260505063608 | 65 | 248 | 1.0 | 3.0 | 0.00 | 0.00 | 0.00 | 63 | 978.9 |
| 20260505063108 | 65 | 231 | 2.0 | 5.0 | 0.00 | 0.00 | 0.00 | 63 | 978.8 |
| 20260505062608 | 65 | 202 | 3.0 | 5.0 | 0.00 | 0.00 | 0.00 | 63 | 978.8 |
| 20260505060607 | 65 | 208 | 3.0 | 5.0 | 0.00 | 0.00 | 0.00 | 62 | 978.7 |
| 20260505060108 | 65 | 196 | 2.0 | 5.0 | 0.00 | 0.00 | 0.00 | 62 | 978.7 |
| 20260505055107 | 65 | 190 | 2.0 | 5.0 | 0.00 | 0.00 | 0.00 | 62 | 978.6 |
| 20260505054608 | 66 | 207 | 2.0 | 3.0 | 0.00 | 0.00 | 0.00 | 62 | 978.6 |
| 20260505054108 | 66 | 197 | 3.0 | 6.0 | 0.00 | 0.00 | 0.00 | 61 | 978.4 |
| 20260505053608 | 66 | 188 | 2.0 | 9.0 | 0.00 | 0.00 | 0.00 | 60 | 978.3 |
| 20260505053108 | 66 | 187 | 3.0 | 7.0 | 0.00 | 0.00 | 0.00 | 60 | 978.2 |
| 20260505052608 | 66 | 185 | 3.0 | 7.0 | 0.00 | 0.00 | 0.00 | 60 | 978.2 |
| 20260505052108 | 66 | 172 | 5.0 | 9.0 | 0.00 | 0.00 | 0.00 | 60 | 978.1 |
| 20260505051608 | 66 | 175 | 5.0 | 8.0 | 0.00 | 0.00 | 0.00 | 60 | 978.1 |
| 20260505051107 | 67 | 197 | 3.0 | 7.0 | 0.00 | 0.00 | 0.00 | 60 | 978.1 |
| 20260505050607 | 67 | 180 | 5.0 | 7.0 | 0.00 | 0.00 | 0.00 | 60 | 978.0 |
| 20260505050108 | 67 | 184 | 5.0 | 9.0 | 0.00 | 0.00 | 0.00 | 60 | 978.0 |
| 20260505041607 | 67 | 210 | 3.0 | 10.0 | 0.00 | 0.00 | 0.00 | 60 | 978.6 |
| 20260505040608 | 67 | 190 | 5.0 | 9.0 | 0.00 | 0.00 | 0.00 | 59 | 978.6 |
| 20260505040108 | 67 | 182 | 3.0 | 8.0 | 0.00 | 0.00 | 0.00 | 59 | 978.7 |
| 20260505035608 | 67 | 172 | 3.0 | 8.0 | 0.00 | 0.00 | 0.00 | 59 | 978.7 |
| 20260505035108 | 67 | 180 | 3.0 | 7.0 | 0.00 | 0.00 | 0.00 | 60 | 978.7 |
| 20260505034608 | 68 | 185 | 3.0 | 6.0 | 0.00 | 0.00 | 0.00 | 59 | 978.7 |
| 20260505034108 | 68 | 181 | 3.0 | 7.0 | 0.00 | 0.00 | 0.00 | 59 | 978.7 |
| 20260505033608 | 68 | 185 | 2.0 | 3.0 | 0.00 | 0.00 | 0.00 | 59 | 978.9 |
| 20260505033107 | 68 | 186 | 3.0 | 6.0 | 0.00 | 0.00 | 0.00 | 58 | 978.9 |
| 20260505032608 | 68 | 184 | 2.0 | 7.0 | 0.00 | 0.00 | 0.00 | 59 | 978.8 |
| 20260505032108 | 68 | 180 | 2.0 | 5.0 | 0.00 | 0.00 | 0.00 | 58 | 978.8 |
| 20260505031607 | 68 | 180 | 2.0 | 5.0 | 0.00 | 0.00 | 0.00 | 58 | 978.8 |
| 20260505030607 | 69 | 185 | 3.0 | 7.0 | 0.00 | 0.00 | 0.00 | 57 | 978.7 |
| 20260505030108 | 69 | 173 | 2.0 | 7.0 | 0.00 | 0.00 | 0.00 | 57 | 978.7 |
| 20260505025608 | 69 | 186 | 2.0 | 6.0 | 0.00 | 0.00 | 0.00 | 57 | 978.7 |
| 20260505025108 | 69 | 187 | 2.0 | 5.0 | 0.00 | 0.00 | 0.00 | 57 | 978.6 |
| 20260505024608 | 69 | 179 | 2.0 | 5.0 | 0.00 | 0.00 | 0.00 | 57 | 978.6 |
| 20260505024108 | 69 | 182 | 2.0 | 5.0 | 0.00 | 0.00 | 0.00 | 57 | 978.5 |
| 20260505023607 | 69 | 153 | 3.0 | 6.0 | 0.00 | 0.00 | 0.00 | 56 | 978.4 |
| 20260505023107 | 69 | 173 | 3.0 | 7.0 | 0.00 | 0.00 | 0.00 | 56 | 978.3 |
| 20260505022607 | 69 | 172 | 3.0 | 7.0 | 0.00 | 0.00 | 0.00 | 56 | 978.3 |
| 20260505021608 | 69 | 178 | 3.0 | 7.0 | 0.00 | 0.00 | 0.00 | 56 | 978.2 |
| 20260505021107 | 69 | 169 | 3.0 | 6.0 | 0.00 | 0.00 | 0.00 | 56 | 978.1 |
| 20260505020607 | 70 | 172 | 3.0 | 6.0 | 0.00 | 0.00 | 0.00 | 56 | 978.0 |
| 20260505020107 | 70 | 173 | 3.0 | 6.0 | 0.00 | 0.00 | 0.00 | 55 | 977.9 |
| 20260505015607 | 70 | 174 | 3.0 | 7.0 | 0.00 | 0.00 | 0.00 | 55 | 977.8 |
| 20260505015107 | 70 | 171 | 4.0 | 8.0 | 0.00 | 0.00 | 0.00 | 54 | 977.7 |
| 20260505014608 | 70 | 174 | 3.0 | 7.0 | 0.00 | 0.00 | 0.00 | 55 | 977.6 |
| 20260505013607 | 70 | 173 | 4.0 | 8.0 | 0.00 | 0.00 | 0.00 | 54 | 977.5 |
| 20260505013107 | 70 | 185 | 3.0 | 7.0 | 0.00 | 0.00 | 0.00 | 55 | 977.5 |
| 20260505012608 | 71 | 170 | 3.0 | 6.0 | 0.00 | 0.00 | 0.00 | 54 | 977.5 |
| 20260505011607 | 71 | 178 | 3.0 | 6.0 | 0.00 | 0.00 | 0.00 | 54 | 977.4 |
| 20260505011108 | 71 | 166 | 3.0 | 6.0 | 0.00 | 0.00 | 0.00 | 54 | 977.4 |
| 20260505010608 | 71 | 198 | 3.0 | 6.0 | 0.00 | 0.00 | 0.00 | 54 | 977.4 |
| 20260505010108 | 71 | 176 | 3.0 | 6.0 | 0.00 | 0.00 | 0.00 | 55 | 977.4 |
| 20260505005607 | 71 | 177 | 2.0 | 5.0 | 0.00 | 0.00 | 0.00 | 55 | 977.4 |
| 20260505005108 | 72 | 163 | 2.0 | 5.0 | 0.00 | 0.00 | 0.00 | 54 | 977.4 |
| 20260505004607 | 72 | 191 | 2.0 | 5.0 | 0.00 | 0.00 | 0.00 | 54 | 977.5 |
| 20260505004107 | 72 | 190 | 3.0 | 8.0 | 0.00 | 0.00 | 0.00 | 54 | 977.5 |
| 20260505003607 | 72 | 185 | 2.0 | 5.0 | 0.00 | 0.00 | 0.00 | 53 | 977.5 |
| 20260505003108 | 72 | 176 | 3.0 | 12.0 | 0.00 | 0.00 | 0.00 | 54 | 977.5 |
| 20260505002608 | 73 | 189 | 3.0 | 7.0 | 0.00 | 0.00 | 0.00 | 53 | 977.5 |
| 20260505001608 | 73 | 190 | 2.0 | 7.0 | 0.00 | 0.00 | 0.00 | 53 | 977.5 |
| 20260505000607 | 73 | 177 | 5.0 | 9.0 | 0.00 | 0.00 | 0.00 | 52 | 977.4 |
| 20260505000107 | 73 | 163 | 4.0 | 9.0 | 0.00 | 0.00 | 0.00 | 51 | 977.6 |
| 20260504235607 | 74 | 175 | 3.0 | 6.0 | 0.00 | 0.00 | 0.00 | 51 | 977.6 |
| 20260504235107 | 74 | 170 | 3.0 | 6.0 | 0.00 | 0.00 | 0.00 | 50 | 977.6 |
| 20260504234607 | 74 | 178 | 4.0 | 7.0 | 0.00 | 0.00 | 0.00 | 50 | 977.6 |
| 20260504234108 | 74 | 173 | 2.0 | 5.0 | 0.00 | 0.00 | 0.00 | 49 | 977.8 |
| 20260504233608 | 75 | 181 | 2.0 | 6.0 | 0.00 | 0.00 | 0.00 | 49 | 977.8 |
| 20260504233108 | 74 | 165 | 3.0 | 7.0 | 0.00 | 0.00 | 0.00 | 48 | 977.9 |
| 20260504232607 | 75 | 186 | 2.0 | 6.0 | 0.00 | 0.00 | 0.00 | 48 | 978.0 |
| 20260504232108 | 75 | 266 | 3.0 | 7.0 | 0.00 | 0.00 | 0.00 | 47 | 978.0 |
| 20260504231607 | 75 | 206 | 2.0 | 6.0 | 0.00 | 0.00 | 0.00 | 48 | 978.0 |
| 20260504231107 | 75 | 181 | 3.0 | 6.0 | 0.00 | 0.00 | 0.00 | 47 | 978.2 |
| 20260504230107 | 76 | 180 | 3.0 | 9.0 | 0.00 | 0.00 | 0.00 | 46 | 978.3 |
| 20260504225608 | 76 | 181 | 3.0 | 7.0 | 0.00 | 0.00 | 0.00 | 45 | 978.3 |
| 20260504225107 | 76 | 208 | 3.0 | 8.0 | 0.00 | 0.00 | 0.00 | 44 | 978.3 |
| 20260504224607 | 76 | 244 | 3.0 | 8.0 | 0.00 | 0.00 | 0.00 | 43 | 978.3 |
| 20260504224107 | 76 | 203 | 3.0 | 8.0 | 0.00 | 0.00 | 0.00 | 44 | 978.3 |
| 20260504223107 | 76 | 229 | 3.0 | 9.0 | 0.00 | 0.00 | 0.00 | 44 | 978.4 |
| 20260504222607 | 75 | 214 | 4.0 | 8.0 | 0.00 | 0.00 | 0.00 | 46 | 978.4 |
| 20260504222107 | 75 | 216 | 3.0 | 7.0 | 0.00 | 0.00 | 0.00 | 51 | 978.4 |
| 20260504221607 | 75 | 181 | 3.0 | 7.0 | 0.00 | 0.00 | 0.00 | 52 | 978.4 |
| 20260504221107 | 74 | 167 | 4.0 | 7.0 | 0.00 | 0.00 | 0.00 | 53 | 978.3 |
| 20260504220607 | 74 | 156 | 5.0 | 8.0 | 0.00 | 0.00 | 0.00 | 53 | 978.4 |
| 20260504220107 | 74 | 151 | 5.0 | 7.0 | 0.00 | 0.00 | 0.00 | 52 | 978.5 |
| 20260504215607 | 74 | 163 | 4.0 | 8.0 | 0.00 | 0.00 | 0.00 | 52 | 978.6 |
| 20260504215107 | 75 | 183 | 4.0 | 8.0 | 0.00 | 0.00 | 0.00 | 51 | 978.4 |
| 20260504214608 | 75 | 163 | 5.0 | 8.0 | 0.00 | 0.00 | 0.00 | 52 | 978.3 |
| 20260504214107 | 74 | 165 | 3.0 | 8.0 | 0.00 | 0.00 | 0.00 | 51 | 978.3 |
| 20260504213607 | 75 | 162 | 3.0 | 8.0 | 0.00 | 0.00 | 0.00 | 52 | 978.4 |
| 20260504213107 | 75 | 169 | 1.0 | 5.0 | 0.00 | 0.00 | 0.00 | 50 | 978.6 |
| 20260504212607 | 75 | 175 | 1.0 | 3.0 | 0.00 | 0.00 | 0.00 | 49 | 978.9 |
| 20260504211607 | 76 | 191 | 1.0 | 3.0 | 0.00 | 0.00 | 0.00 | 49 | 979.1 |
| 20260504211108 | 76 | 156 | 1.0 | 3.0 | 0.00 | 0.00 | 0.00 | 49 | 979.1 |
| 20260504210107 | 76 | 241 | 3.0 | 6.0 | 0.00 | 0.00 | 0.00 | 46 | 979.1 |
| 20260504205607 | 76 | 283 | 1.0 | 5.0 | 0.00 | 0.00 | 0.00 | 47 | 979.0 |
| 20260504205107 | 75 | 262 | 2.0 | 6.0 | 0.00 | 0.00 | 0.00 | 48 | 979.4 |
| 20260504204107 | 76 | 257 | 1.0 | 5.0 | 0.00 | 0.00 | 0.00 | 48 | 979.3 |
| 20260504203607 | 76 | 209 | 3.0 | 6.0 | 0.00 | 0.00 | 0.00 | 48 | 979.4 |
| 20260504203107 | 76 | 206 | 3.0 | 8.0 | 0.00 | 0.00 | 0.00 | 48 | 979.5 |
| 20260504202607 | 76 | 197 | 2.0 | 8.0 | 0.00 | 0.00 | 0.00 | 48 | 979.4 |
| 20260504202107 | 76 | 210 | 2.0 | 9.0 | 0.00 | 0.00 | 0.00 | 51 | 979.5 |
| 20260504201607 | 76 | 279 | 2.0 | 9.0 | 0.00 | 0.00 | 0.00 | 49 | 979.6 |
| 20260504201107 | 75 | 293 | 2.0 | 6.0 | 0.00 | 0.00 | 0.00 | 50 | 979.5 |
| 20260504200607 | 74 | 248 | 2.0 | 5.0 | 0.00 | 0.00 | 0.00 | 51 | 979.6 |
| 20260504200107 | 73 | 281 | 3.0 | 6.0 | 0.00 | 0.00 | 0.00 | 53 | 979.8 |
| 20260504195607 | 73 | 290 | 2.0 | 7.0 | 0.00 | 0.00 | 0.00 | 53 | 980.0 |
| 20260504194607 | 74 | 217 | 2.0 | 8.0 | 0.00 | 0.00 | 0.00 | 53 | 980.1 |
| 20260504194107 | 75 | 198 | 2.0 | 8.0 | 0.00 | 0.00 | 0.00 | 52 | 980.0 |
| 20260504193607 | 75 | 280 | 3.0 | 6.0 | 0.00 | 0.00 | 0.00 | 53 | 979.7 |
| 20260504192607 | 73 | 244 | 2.0 | 5.0 | 0.00 | 0.00 | 0.00 | 55 | 979.8 |
| 20260504192107 | 72 | 309 | 3.0 | 6.0 | 0.00 | 0.00 | 0.00 | 54 | 979.9 |
| 20260504190606 | 69 | 241 | 0.0 | 3.0 | 0.00 | 0.00 | 0.00 | 63 | 980.5 |
| 20260504190107 | 69 | 249 | 1.0 | 3.0 | 0.00 | 0.00 | 0.00 | 64 | 980.8 |
| 20260504185607 | 68 | 186 | 0.0 | 1.0 | 0.00 | 0.00 | 0.00 | 63 | 980.3 |
| 20260504185107 | 68 | 234 | 1.0 | 3.0 | 0.00 | 0.00 | 0.00 | 62 | 981.1 |
| 20260504184606 | 68 | 245 | 1.0 | 5.0 | 0.00 | 0.00 | 0.00 | 64 | 981.2 |
| 20260504184107 | 68 | 180 | 1.0 | 5.0 | 0.00 | 0.00 | 0.00 | 63 | 981.3 |
| 20260504183107 | 69 | 220 | 1.0 | 5.0 | 0.00 | 0.00 | 0.00 | 60 | 981.4 |
| 20260504182107 | 69 | 230 | 2.0 | 7.0 | 0.00 | 0.00 | 0.00 | 59 | 981.1 |
| 20260504181607 | 69 | 213 | 2.0 | 7.0 | 0.00 | 0.00 | 0.00 | 60 | 981.0 |
| 20260504181107 | 69 | 214 | 2.0 | 7.0 | 0.00 | 0.00 | 0.00 | 59 | 981.1 |
| 20260504180607 | 69 | 218 | 2.0 | 10.0 | 0.00 | 0.00 | 0.00 | 60 | 981.1 |
| 20260504180107 | 70 | 243 | 2.0 | 6.0 | 0.00 | 0.00 | 0.00 | 58 | 981.0 |
| 20260504175607 | 70 | 239 | 3.0 | 7.0 | 0.00 | 0.00 | 0.00 | 57 | 980.8 |
| 20260504175107 | 70 | 180 | 2.0 | 12.0 | 0.00 | 0.00 | 0.00 | 58 | 980.8 |
| 20260504174107 | 71 | 207 | 3.0 | 9.0 | 0.00 | 0.00 | 0.00 | 57 | 980.5 |
| 20260504173607 | 72 | 186 | 5.0 | 10.0 | 0.00 | 0.00 | 0.00 | 55 | 980.3 |
| 20260504172606 | 72 | 209 | 2.0 | 12.0 | 0.00 | 0.00 | 0.00 | 55 | 980.1 |
| 20260504172107 | 73 | 193 | 3.0 | 10.0 | 0.00 | 0.00 | 0.00 | 55 | 979.9 |
| 20260504171606 | 72 | 167 | 5.0 | 9.0 | 0.00 | 0.00 | 0.00 | 55 | 979.8 |
| 20260504171107 | 71 | 227 | 3.0 | 6.0 | 0.00 | 0.00 | 0.00 | 55 | 979.8 |
| 20260504170607 | 71 | 231 | 3.0 | 7.0 | 0.00 | 0.00 | 0.00 | 55 | 980.0 |
| 20260504170107 | 70 | 227 | 5.0 | 12.0 | 0.00 | 0.00 | 0.00 | 56 | 980.1 |
| 20260504150607 | 64 | 188 | 1.0 | 5.0 | 0.00 | 0.00 | 0.00 | 65 | 980.7 |
| 20260504150106 | 64 | 200 | 3.0 | 7.0 | 0.00 | 0.00 | 0.00 | 66 | 980.9 |
| 20260504140106 | 60 | 203 | 4.0 | 10.0 | 0.00 | 0.00 | 0.00 | 68 | 981.1 |
| 20260504130607 | 56 | 154 | 5.0 | 8.0 | 0.00 | 0.00 | 0.00 | 74 | 981.4 |
| 20260504130107 | 55 | 171 | 3.0 | 7.0 | 0.00 | 0.00 | 0.00 | 73 | 981.5 |
| 20260504120106 | 53 | 184 | 2.0 | 5.0 | 0.00 | 0.00 | 0.00 | 74 | 981.7 |
| 20260504110607 | 53 | 177 | 3.0 | 6.0 | 0.00 | 0.00 | 0.00 | 68 | 981.7 |
| 20260504110106 | 53 | 198 | 2.0 | 3.0 | 0.00 | 0.00 | 0.00 | 68 | 981.8 |
| 20260504100606 | 53 | 192 | 2.0 | 3.0 | 0.00 | 0.00 | 0.00 | 67 | 982.0 |
| 20260504100106 | 53 | 195 | 2.0 | 3.0 | 0.00 | 0.00 | 0.00 | 66 | 982.0 |